Weather reports worldwide

Advertisment
Trapani/Birgi, Italy (16429): temperature & dewpoint: 17.04.2019 19:00:00 - 23.04.2019 19:00:00 (CEST)Trapani/Birgi, Italy (16429): wind speed: 17.04.2019 19:00:00 - 23.04.2019 19:00:00 (CEST)Trapani/Birgi, Italy (16429): wind direction: 17.04.2019 19:00:00 - 23.04.2019 19:00:00 (CEST)Trapani/Birgi, Italy (16429): reduced air pressure: 17.04.2019 19:00:00 - 23.04.2019 19:00:00 (CEST)Trapani/Birgi, Italy (16429): visibility: 17.04.2019 19:00:00 - 23.04.2019 19:00:00 (CEST)Trapani/Birgi, Italy (16429): sunshine duration: 17.04.2019 19:00:00 - 23.04.2019 19:00:00 (CEST)
Date & Time tt [°C] td [°C] ff [km/h] ff [kn] dd ppp [hPa] vv [km] sd [min]
23.04.2019 19:00:00 - - - - - - - -
23.04.2019 18:00:00 22,0 17,2 16 9 SSE 1008,2 18 60
23.04.2019 17:00:00 23,8 18,0 22 12 SSE 1008,0 18 60
23.04.2019 16:00:00 24,0 17,7 29 16 SSE 1007,6 18 60
23.04.2019 15:00:00 25,0 18,0 31 17 SSE 1007,6 18 60
23.04.2019 14:00:00 25,0 17,2 34 18 SSE 1007,0 18 60
23.04.2019 13:00:00 25,2 16,4 31 17 SSE 1006,8 18 60
23.04.2019 12:00:00 25,0 17,2 31 17 SSE 1006,5 18 60
23.04.2019 11:00:00 23,0 16,3 35 19 SSE 1005,7 18 60
23.04.2019 10:00:00 21,0 15,8 35 19 SE 1005,3 18 60
23.04.2019 09:00:00 19,8 15,9 37 20 SE 1004,6 18 60
23.04.2019 08:00:00 17,0 14,5 22 12 SE 1004,6 12 18
23.04.2019 07:00:00 16,0 14,9 22 12 SE 1003,8 12 -
23.04.2019 06:00:00 16,0 15,2 21 11 SSE 1003,4 12 -
23.04.2019 05:00:00 16,8 16,3 22 12 S 1003,3 12 -
23.04.2019 04:00:00 17,2 16,4 26 14 S 1003,1 12 -
23.04.2019 03:00:00 18,0 16,0 29 16 SSE 1002,9 12 -
23.04.2019 02:00:00 18,6 15,7 31 17 SSE 1002,8 12 -
23.04.2019 01:00:00 18,8 15,1 34 18 SSE 1002,1 12 -
23.04.2019 00:00:00 19,0 14,9 41 22 SSE 1001,1 12 -
22.04.2019 23:00:00 19,0 14,5 48 26 SE 1001,0 12 -
22.04.2019 22:00:00 19,0 14,1 46 25 SE 1000,4 12 -
22.04.2019 21:00:00 19,2 14,5 46 25 SE 1000,2 12 -
22.04.2019 20:00:00 19,8 14,6 44 24 SE 1000,0 12 -
22.04.2019 19:00:00 20,6 14,9 52 28 SE 1000,1 12 0
22.04.2019 18:00:00 21,4 15,3 50 27 SE 1000,0 12 0
22.04.2019 17:00:00 21,8 16,1 54 29 SE 999,2 12 0
22.04.2019 16:00:00 20,8 16,2 57 31 SE 999,1 12 0
22.04.2019 15:00:00 19,0 15,5 46 25 ESE 1000,6 10 0
22.04.2019 14:00:00 22,0 16,1 55 30 SE 1000,1 10 0
22.04.2019 13:00:00 23,2 16,3 61 33 SE 1001,0 12 0
22.04.2019 12:00:00 24,0 15,8 65 35 SE 1001,1 14 30
22.04.2019 11:00:00 21,2 15,3 67 36 SE 1001,4 15 0
22.04.2019 10:00:00 20,0 14,1 67 36 SE 1001,1 10 0
22.04.2019 09:00:00 19,8 14,2 67 36 SE 1000,1 10 0
22.04.2019 08:00:00 19,2 12,9 72 39 SE 1000,1 14 0
22.04.2019 07:00:00 19,2 12,2 72 39 SE 1001,1 15 0
22.04.2019 06:00:00 20,2 12,2 68 37 SE 1001,5 12 -
22.04.2019 05:00:00 20,6 12,1 70 38 SE 1002,2 12 -
22.04.2019 04:00:00 21,0 11,1 67 36 SE 1002,9 10 -
22.04.2019 03:00:00 22,2 10,7 65 35 SE 1003,2 12 -
22.04.2019 02:00:00 22,4 10,6 70 38 W 1004,1 12 -
22.04.2019 01:00:00 22,2 10,4 65 35 SE 1004,6 12 -
22.04.2019 00:00:00 21,2 9,8 59 32 SE 1005,1 12 -
21.04.2019 23:00:00 20,4 10,8 59 32 ESE 1006,1 12 -
21.04.2019 22:00:00 20,6 10,7 35 19 ESE 1009,1 15 -
21.04.2019 21:00:00 20,2 11,7 61 33 SE 1007,1 15 -
21.04.2019 20:00:00 20,2 13,2 57 31 ESE 1007,6 18 0
21.04.2019 19:00:00 20,2 14,1 61 33 ESE 1006,3 20 0
21.04.2019 18:00:00 20,2 15,2 34 18 ESE 1010,9 20 0
21.04.2019 17:00:00 21,8 14,4 37 20 SE 1010,1 20 0
21.04.2019 16:00:00 22,0 13,4 54 29 SE 1009,1 20 0
21.04.2019 15:00:00 22,2 12,2 57 31 SE 1009,8 20 0
21.04.2019 14:00:00 22,0 10,5 48 26 SE 1010,1 20 0
21.04.2019 13:00:00 21,0 6,9 57 31 SE 1011,1 20 0
21.04.2019 12:00:00 22,8 3,4 48 26 ESE 1011,4 20 0
21.04.2019 11:00:00 21,8 6,9 26 14 ESE 1013,1 20 0
21.04.2019 10:00:00 18,0 15,1 5 3 W 1013,7 20 0
21.04.2019 09:00:00 16,4 11,6 5 3 NE 1014,1 20 0
21.04.2019 08:00:00 16,2 10,7 15 8 N 1015,1 20 0
21.04.2019 07:00:00 16,0 9,4 11 6 E 1015,1 16 -
21.04.2019 06:00:00 15,0 9,6 11 6 E 1014,8 12 -
21.04.2019 05:00:00 16,0 8,3 18 10 SE 1015,8 12 -
21.04.2019 04:00:00 12,4 4,9 18 10 ESE 1016,8 12 -
21.04.2019 03:00:00 14,0 10,2 11 6 SE 1019,1 12 -
21.04.2019 02:00:00 14,8 12,8 15 8 SE 1018,7 12 -
21.04.2019 01:00:00 15,0 10,6 13 7 ESE 1019,1 12 -
21.04.2019 00:00:00 15,8 13,1 4 2 N 1019,2 12 -
20.04.2019 23:00:00 16,0 14,2 11 6 ESE 1018,5 12 -
20.04.2019 22:00:00 16,2 14,6 21 11 SE 1019,1 12 -
20.04.2019 21:00:00 16,4 13,5 26 14 SE 1019,1 12 -
20.04.2019 20:00:00 16,8 12,1 28 15 SE 1019,1 16 -
20.04.2019 19:00:00 18,0 11,3 35 19 SE 1019,0 16 0
20.04.2019 18:00:00 19,2 11,3 35 19 SE 1019,1 16 18
20.04.2019 17:00:00 21,8 13,4 28 15 SSE 1019,6 16 12
20.04.2019 16:00:00 23,0 11,4 24 13 SE 1020,1 12 12
20.04.2019 15:00:00 23,4 10,1 22 12 SE 1021,1 16 42
20.04.2019 14:00:00 23,2 8,1 26 14 SE 1021,7 16 48
20.04.2019 13:00:00 23,0 6,3 22 12 SSE 1022,3 16 60
20.04.2019 12:00:00 22,2 6,8 11 6 SSE 1023,1 10 30
20.04.2019 11:00:00 19,0 6,2 16 9 ESE 1023,2 16 0
20.04.2019 10:00:00 17,2 8,6 9 5 ESE 1023,7 16 0
20.04.2019 09:00:00 14,0 12,0 4 2 N 1024,1 16 0
20.04.2019 08:00:00 12,0 10,9 2 1 N 1023,6 12 0
20.04.2019 07:00:00 11,2 10,3 4 2 N 1023,2 20 -
20.04.2019 06:00:00 11,2 10,0 5 3 E 1023,4 20 -
20.04.2019 05:00:00 10,8 10,0 4 2 ESE 1023,9 20 -
20.04.2019 04:00:00 11,2 10,6 4 2 ESE 1024,1 20 -
20.04.2019 03:00:00 13,0 12,2 5 3 E 1024,3 20 -
20.04.2019 02:00:00 13,2 12,4 4 2 N 1024,8 20 -
20.04.2019 01:00:00 14,0 13,0 9 5 SE 1025,1 20 -
20.04.2019 00:00:00 14,0 12,7 15 8 SE 1025,4 20 -
19.04.2019 23:00:00 14,0 12,1 5 3 N 1025,6 20 -
19.04.2019 22:00:00 14,6 11,2 8 4 SSE 1025,2 20 -
19.04.2019 21:00:00 15,2 14,2 8 4 S 1025,0 20 -
19.04.2019 20:00:00 16,2 15,1 8 4 W 1024,8 20 -
19.04.2019 19:00:00 19,2 12,0 8 4 S 1024,5 20 30
19.04.2019 18:00:00 19,0 11,6 9 5 NW 1024,6 22 60
19.04.2019 17:00:00 18,8 15,5 18 10 WNW 1024,7 22 60
19.04.2019 16:00:00 21,2 11,5 11 6 WNW 1024,6 22 60
19.04.2019 15:00:00 22,6 6,8 22 12 SE 1024,9 10 60
19.04.2019 14:00:00 23,2 6,5 28 15 SSE 1024,9 22 60
19.04.2019 13:00:00 22,8 6,1 28 15 SSE 1025,1 22 60
19.04.2019 12:00:00 21,2 5,6 24 13 SE 1025,3 10 60
19.04.2019 11:00:00 21,0 5,8 16 9 ESE 1025,1 22 60
19.04.2019 10:00:00 19,0 7,8 16 9 SSE 1024,9 22 60
19.04.2019 09:00:00 16,2 10,1 4 2 NE 1024,2 20 36
19.04.2019 08:00:00 11,8 8,5 4 2 E 1023,4 20 0
19.04.2019 07:00:00 10,4 8,7 8 4 ENE 1022,9 20 0
19.04.2019 06:00:00 11,8 11,0 8 4 E 1022,8 15 -
19.04.2019 05:00:00 11,8 11,0 9 5 SW 1022,6 15 -
19.04.2019 04:00:00 12,0 10,3 5 3 ESE 1022,6 15 -
19.04.2019 03:00:00 12,0 10,3 5 3 ESE 1022,8 15 -
19.04.2019 02:00:00 12,0 10,4 9 5 ESE 1022,9 15 -
19.04.2019 01:00:00 12,2 10,6 9 5 ESE 1022,9 15 -
19.04.2019 00:00:00 12,4 10,5 5 3 E 1022,7 15 -
18.04.2019 23:00:00 13,2 11,3 5 3 E 1022,1 15 -
18.04.2019 22:00:00 15,0 12,9 5 3 E 1021,7 15 -
18.04.2019 21:00:00 15,2 14,4 2 1 N 1021,1 15 -
18.04.2019 20:00:00 16,4 15,6 5 3 NNE 1020,9 20 18
18.04.2019 19:00:00 19,4 11,4 16 9 ESE 1020,4 18 60
18.04.2019 18:00:00 20,8 12,5 16 9 SE 1021,1 20 60
18.04.2019 17:00:00 21,2 13,1 18 10 SSE 1021,1 20 60
18.04.2019 16:00:00 21,8 14,0 21 11 S 1021,1 20 60
18.04.2019 15:00:00 22,0 13,9 18 10 SSE 1021,1 20 60
18.04.2019 14:00:00 19,6 15,9 26 14 SW 1021,4 20 60
18.04.2019 13:00:00 18,6 16,2 21 11 W 1021,8 20 60
18.04.2019 12:00:00 17,6 15,8 16 9 W 1021,9 20 30
18.04.2019 11:00:00 19,2 14,0 11 6 ESE 1021,7 20 60
18.04.2019 10:00:00 17,2 14,1 11 6 ESE 1021,7 20 60
18.04.2019 09:00:00 14,2 11,9 9 5 ESE 1021,3 20 42
18.04.2019 08:00:00 11,6 9,5 9 5 ENE 1021,1 18 18
18.04.2019 07:00:00 10,4 8,3 8 4 SE 1020,8 16 -
18.04.2019 06:00:00 12,0 9,9 9 5 ESE 1020,7 12 -
18.04.2019 05:00:00 11,0 9,1 4 2 NE 1020,9 12 -
18.04.2019 04:00:00 10,6 9,0 4 2 ENE 1020,8 12 -
18.04.2019 03:00:00 10,4 8,7 5 3 ENE 1021,2 12 -
18.04.2019 02:00:00 11,2 9,5 4 2 E 1021,3 12 -
18.04.2019 01:00:00 11,4 9,7 2 1 E 1021,3 12 -
18.04.2019 00:00:00 11,2 9,8 5 3 NE 1021,2 12 -
17.04.2019 23:00:00 12,0 11,1 8 4 NNE 1021,2 12 -
17.04.2019 22:00:00 13,6 12,7 4 2 ENE 1021,2 12 -
17.04.2019 21:00:00 15,0 13,9 5 3 NNE 1020,5 12 -
17.04.2019 20:00:00 16,4 15,1 8 4 N 1020,0 16 24
17.04.2019 19:00:00 16,8 14,8 21 11 N 1019,8 20 60

tt = temperature
td = dewpoint
ff = wind speed
dd = wind direction
ppp = reduced air pressure
vv = visibility
sd = sunshine duration

Next stations